| time (UTC) | temp C | wind direction | speed KPH | gust KPH | rain 1hr cm | rain 24hr cm | rain mn cm | humidity % | barometer mb |
| 20260505005751 | 18 | 275 | 0.0 | 0.0 | 0.00 | 0.00 | 0.00 | 75 | 1000.3 |
| 20260505005121 | 18 | 259 | 0.0 | 0.0 | 0.00 | 0.00 | 0.00 | 74 | 1000.3 |
| 20260505004534 | 18 | 242 | 0.0 | 0.0 | 0.00 | 0.00 | 0.00 | 74 | 1000.3 |
| 20260505003929 | 18 | 261 | 0.0 | 0.0 | 0.00 | 0.00 | 0.00 | 74 | 1000.3 |
| 20260505003354 | 19 | 237 | 0.0 | 0.0 | 0.00 | 0.00 | 0.00 | 72 | 1000.3 |
| 20260505002111 | 20 | 263 | 0.0 | 0.0 | 0.00 | 0.00 | 0.00 | 72 | 1000.3 |
| 20260505001513 | 20 | 272 | 0.0 | 0.0 | 0.00 | 0.00 | 0.00 | 70 | 1000.3 |
| 20260505000916 | 20 | 252 | 0.0 | 0.0 | 0.00 | 0.00 | 0.00 | 69 | 1000.3 |
| 20260505000318 | 21 | 262 | 0.0 | 0.0 | 0.00 | 0.00 | 0.00 | 69 | 1000.6 |
| 20260504235715 | 21 | 266 | 0.0 | 0.0 | 0.00 | 0.00 | 0.00 | 68 | 1000.6 |
| 20260504234528 | 22 | 274 | 0.0 | 0.0 | 0.00 | 0.00 | 0.00 | 65 | 1000.6 |
| 20260504233933 | 22 | 282 | 0.0 | 0.0 | 0.00 | 0.00 | 0.00 | 63 | 1000.6 |
| 20260504233341 | 23 | 185 | 0.0 | 0.0 | 0.00 | 0.00 | 0.00 | 63 | 1000.3 |
| 20260504232715 | 23 | 273 | 0.0 | 1.6 | 0.00 | 0.00 | 0.00 | 56 | 1000.3 |
| 20260504232153 | 25 | 257 | 1.6 | 1.6 | 0.00 | 0.00 | 0.00 | 53 | 1000.3 |
| 20260504231519 | 26 | 349 | 3.2 | 4.8 | 0.00 | 0.00 | 0.00 | 51 | 1000.3 |
| 20260504230952 | 27 | 215 | 0.0 | 1.6 | 0.00 | 0.00 | 0.00 | 51 | 1000.6 |
| 20260504225715 | 26 | 325 | 1.6 | 3.2 | 0.00 | 0.00 | 0.00 | 50 | 1000.6 |
| 20260504225147 | 26 | 307 | 1.6 | 1.6 | 0.00 | 0.00 | 0.00 | 51 | 1000.6 |
| 20260504224511 | 25 | 297 | 1.6 | 3.2 | 0.00 | 0.00 | 0.00 | 52 | 1000.6 |
| 20260504223935 | 25 | 23 | 1.6 | 3.2 | 0.00 | 0.00 | 0.00 | 53 | 1000.6 |
| 20260504223316 | 25 | 290 | 3.2 | 3.2 | 0.00 | 0.00 | 0.00 | 51 | 1000.6 |
| 20260504222753 | 25 | 336 | 1.6 | 1.6 | 0.00 | 0.00 | 0.00 | 55 | 1000.6 |
| 20260504222112 | 25 | 321 | 0.0 | 1.6 | 0.00 | 0.00 | 0.00 | 56 | 1000.6 |
| 20260504221522 | 25 | 5 | 1.6 | 1.6 | 0.00 | 0.00 | 0.00 | 52 | 1001.0 |
| 20260504220927 | 25 | 25 | 3.2 | 4.8 | 0.00 | 0.00 | 0.00 | 52 | 1001.0 |
| 20260504220316 | 25 | 330 | 9.7 | 12.9 | 0.00 | 0.00 | 0.00 | 52 | 1001.0 |
| 20260504215123 | 24 | 341 | 6.4 | 6.4 | 0.00 | 0.00 | 0.00 | 55 | 1001.3 |
| 20260504214552 | 24 | 16 | 6.4 | 6.4 | 0.00 | 0.00 | 0.00 | 53 | 1001.3 |
| 20260504213951 | 25 | 334 | 4.8 | 6.4 | 0.00 | 0.00 | 0.00 | 52 | 1001.0 |
| 20260504211528 | 25 | 28 | 4.8 | 6.4 | 0.00 | 0.00 | 0.00 | 51 | 1001.3 |
| 20260504210950 | 25 | 318 | 8.0 | 11.3 | 0.00 | 0.00 | 0.00 | 50 | 1001.3 |
| 20260504210330 | 25 | 345 | 3.2 | 4.8 | 0.00 | 0.00 | 0.00 | 51 | 1001.3 |
| 20260504205734 | 24 | 293 | 6.4 | 6.4 | 0.00 | 0.00 | 0.00 | 51 | 1001.3 |
| 20260504205140 | 24 | 42 | 4.8 | 6.4 | 0.00 | 0.00 | 0.00 | 52 | 1001.3 |
| 20260504204542 | 24 | 342 | 4.8 | 4.8 | 0.00 | 0.00 | 0.00 | 54 | 1001.6 |
| 20260504203932 | 23 | 306 | 8.0 | 9.7 | 0.00 | 0.00 | 0.00 | 55 | 1001.3 |
| 20260504202734 | 22 | 2 | 4.8 | 4.8 | 0.00 | 0.00 | 0.00 | 60 | 1001.6 |
| 20260504202114 | 21 | 306 | 4.8 | 4.8 | 0.00 | 0.00 | 0.00 | 60 | 1001.3 |
| 20260504201541 | 21 | 291 | 1.6 | 1.6 | 0.00 | 0.00 | 0.00 | 63 | 1001.3 |
| 20260504200320 | 20 | 257 | 1.6 | 1.6 | 0.00 | 0.00 | 0.00 | 68 | 1001.6 |
| 20260504195752 | 20 | 319 | 1.6 | 3.2 | 0.00 | 0.00 | 0.00 | 63 | 1001.6 |
| 20260504195125 | 20 | 20 | 1.6 | 1.6 | 0.00 | 0.00 | 0.00 | 64 | 1002.0 |
| 20260504194552 | 20 | 9 | 3.2 | 3.2 | 0.00 | 0.00 | 0.00 | 64 | 1001.6 |
| 20260504193936 | 21 | 355 | 3.2 | 3.2 | 0.00 | 0.00 | 0.00 | 60 | 1001.6 |
| 20260504193338 | 21 | 340 | 4.8 | 4.8 | 0.00 | 0.00 | 0.00 | 59 | 1002.3 |
| 20260504192722 | 22 | 344 | 3.2 | 4.8 | 0.00 | 0.00 | 0.00 | 58 | 1002.3 |
| 20260504192139 | 22 | 311 | 6.4 | 11.3 | 0.00 | 0.00 | 0.00 | 56 | 1002.3 |
| 20260504191533 | 22 | 335 | 3.2 | 3.2 | 0.00 | 0.00 | 0.00 | 56 | 1002.0 |
| 20260504190949 | 22 | 260 | 6.4 | 9.7 | 0.00 | 0.00 | 0.00 | 57 | 1002.0 |
| 20260504185733 | 22 | 17 | 4.8 | 9.7 | 0.00 | 0.00 | 0.00 | 55 | 1002.0 |
| 20260504184535 | 23 | 264 | 8.0 | 9.7 | 0.00 | 0.00 | 0.00 | 52 | 1002.7 |
| 20260504183943 | 22 | 298 | 9.7 | 11.3 | 0.00 | 0.00 | 0.00 | 53 | 1002.7 |
| 20260504183329 | 22 | 333 | 4.8 | 11.3 | 0.00 | 0.00 | 0.00 | 56 | 1002.7 |
| 20260504182741 | 22 | 24 | 4.8 | 9.7 | 0.00 | 0.00 | 0.00 | 53 | 1002.7 |
| 20260504182142 | 22 | 270 | 3.2 | 3.2 | 0.00 | 0.00 | 0.00 | 54 | 1002.7 |
| 20260504181512 | 22 | 10 | 3.2 | 4.8 | 0.00 | 0.00 | 0.00 | 53 | 1002.7 |
| 20260504180923 | 22 | 286 | 8.0 | 12.9 | 0.00 | 0.00 | 0.00 | 55 | 1002.7 |
| 20260504180320 | 22 | 1 | 9.7 | 11.3 | 0.00 | 0.00 | 0.00 | 58 | 1002.7 |
| 20260504175748 | 22 | 342 | 3.2 | 4.8 | 0.00 | 0.00 | 0.00 | 55 | 1002.7 |
| 20260504174534 | 22 | 315 | 9.7 | 12.9 | 0.00 | 0.00 | 0.00 | 55 | 1002.3 |
| 20260504173931 | 21 | 5 | 8.0 | 9.7 | 0.00 | 0.00 | 0.00 | 60 | 1002.7 |
| 20260504172713 | 22 | 245 | 4.8 | 4.8 | 0.00 | 0.00 | 0.00 | 58 | 1002.3 |
| 20260504172134 | 22 | 356 | 6.4 | 6.4 | 0.00 | 0.00 | 0.00 | 55 | 1002.7 |
| 20260504171554 | 21 | 338 | 3.2 | 3.2 | 0.00 | 0.00 | 0.00 | 60 | 1002.7 |
| 20260504170919 | 21 | 23 | 9.7 | 14.5 | 0.00 | 0.00 | 0.00 | 55 | 1003.0 |
| 20260504170335 | 21 | 321 | 6.4 | 6.4 | 0.00 | 0.00 | 0.00 | 58 | 1003.0 |
| 20260504160347 | 18 | 349 | 6.4 | 9.7 | 0.00 | 0.00 | 0.00 | 67 | 1004.0 |
| 20260504141236 | 15 | 6 | 3.2 | 3.2 | 0.00 | 0.00 | 0.00 | 72 | 1005.0 |
| 20260504140653 | 14 | 343 | 6.4 | 9.7 | 0.00 | 0.00 | 0.00 | 72 | 1005.0 |
| 20260504130633 | 13 | 353 | 3.2 | 4.8 | 0.00 | 0.00 | 0.00 | 71 | 1004.7 |
| 20260504110627 | 7 | 239 | 0.0 | 0.0 | 0.00 | 0.00 | 0.00 | 92 | 1004.7 |
| 20260504081815 | 7 | 250 | 0.0 | 0.0 | 0.00 | 0.00 | 0.00 | 97 | 1005.4 |
| 20260504081216 | 7 | 266 | 0.0 | 0.0 | 0.00 | 0.00 | 0.00 | 96 | 1005.7 |
| 20260504080626 | 7 | 288 | 0.0 | 0.0 | 0.00 | 0.00 | 0.00 | 96 | 1005.4 |
| 20260504045417 | 10 | 265 | 0.0 | 0.0 | 0.00 | 0.00 | 0.00 | 91 | 1007.1 |
| 20260504044831 | 10 | 259 | 0.0 | 0.0 | 0.00 | 0.00 | 0.00 | 91 | 1007.1 |
| 20260504044221 | 10 | 263 | 0.0 | 0.0 | 0.00 | 0.00 | 0.00 | 89 | 1007.1 |
| 20260504043642 | 11 | 268 | 0.0 | 0.0 | 0.00 | 0.00 | 0.00 | 86 | 1007.1 |
| 20260504043048 | 11 | 272 | 0.0 | 0.0 | 0.00 | 0.00 | 0.00 | 81 | 1007.4 |
| 20260504042431 | 11 | 313 | 1.6 | 1.6 | 0.00 | 0.00 | 0.00 | 76 | 1007.4 |
| 20260504041228 | 11 | 8 | 3.2 | 3.2 | 0.00 | 0.00 | 0.00 | 72 | 1007.4 |
| 20260504040644 | 12 | 359 | 4.8 | 4.8 | 0.00 | 0.00 | 0.00 | 68 | 1007.4 |
| 20260504040030 | 12 | 353 | 1.6 | 1.6 | 0.00 | 0.00 | 0.00 | 62 | 1007.1 |
| 20260504035428 | 11 | 18 | 4.8 | 6.4 | 0.00 | 0.00 | 0.00 | 62 | 1007.1 |
| 20260504034215 | 11 | 275 | 0.0 | 0.0 | 0.00 | 0.00 | 0.00 | 72 | 1007.4 |
| 20260504033612 | 11 | 271 | 0.0 | 0.0 | 0.00 | 0.00 | 0.00 | 72 | 1007.1 |
| 20260504033036 | 11 | 279 | 0.0 | 0.0 | 0.00 | 0.00 | 0.00 | 71 | 1007.1 |
| 20260504031244 | 11 | 268 | 0.0 | 0.0 | 0.00 | 0.00 | 0.00 | 72 | 1007.1 |
| 20260504030018 | 11 | 279 | 0.0 | 0.0 | 0.00 | 0.00 | 0.00 | 71 | 1007.1 |
| 20260504025414 | 11 | 290 | 0.0 | 0.0 | 0.00 | 0.00 | 0.00 | 71 | 1007.1 |
| 20260504024824 | 11 | 268 | 0.0 | 0.0 | 0.00 | 0.00 | 0.00 | 71 | 1007.4 |
| 20260504024220 | 11 | 259 | 3.2 | 3.2 | 0.00 | 0.00 | 0.00 | 69 | 1007.1 |
| 20260504023633 | 11 | 280 | 0.0 | 0.0 | 0.00 | 0.00 | 0.00 | 70 | 1007.1 |
| 20260504023027 | 11 | 268 | 0.0 | 0.0 | 0.00 | 0.00 | 0.00 | 71 | 1007.1 |
| 20260504022437 | 11 | 273 | 0.0 | 0.0 | 0.00 | 0.00 | 0.00 | 70 | 1007.1 |
| 20260504021834 | 11 | 266 | 0.0 | 0.0 | 0.00 | 0.00 | 0.00 | 71 | 1007.1 |
| 20260504020620 | 11 | 251 | 0.0 | 0.0 | 0.00 | 0.00 | 0.00 | 72 | 1007.1 |
| 20260504020020 | 11 | 279 | 0.0 | 0.0 | 0.00 | 0.00 | 0.00 | 70 | 1006.7 |
| 20260504015443 | 11 | 268 | 0.0 | 0.0 | 0.00 | 0.00 | 0.00 | 70 | 1006.7 |
| 20260504014826 | 11 | 276 | 0.0 | 0.0 | 0.00 | 0.00 | 0.00 | 69 | 1006.7 |
| 20260504014244 | 11 | 275 | 0.0 | 0.0 | 0.00 | 0.00 | 0.00 | 69 | 1006.7 |
| 20260504013650 | 11 | 286 | 0.0 | 0.0 | 0.00 | 0.00 | 0.00 | 67 | 1006.7 |
| 20260504012412 | 11 | 207 | 0.0 | 0.0 | 0.00 | 0.00 | 0.00 | 68 | 1006.7 |
| 20260504011837 | 11 | 327 | 0.0 | 1.6 | 0.00 | 0.00 | 0.00 | 66 | 1007.1 |
| 20260504011214 | 12 | 268 | 0.0 | 0.0 | 0.00 | 0.00 | 0.00 | 66 | 1006.7 |
| 20260504010635 | 12 | 295 | 0.0 | 0.0 | 0.00 | 0.00 | 0.00 | 63 | 1006.7 |